This is the latest recevied weather packets stored in our database for station/object ES0THZ-13. If no packets are shown the sender has not sent any weather packets the latest 10 day(s).
| Time | Temp. | Humidity | Pressure | Rain* | Wind** | Luminosity | Snow |
|---|---|---|---|---|---|---|---|
| 1777683911 | 11.11° C | 72% | 1011.3 hPa | - | - | - | - |
| 1777682856 | 11.11° C | 74% | 1011.2 hPa | - | - | - | - |
| 1777681846 | 10.56° C | 75% | 1010.2 hPa | - | - | - | - |
| 1777680811 | 8.89° C | 76% | 1011.7 hPa | - | - | - | - |
| 1777679671 | 8.33° C | 77% | 1011.9 hPa | - | - | - | - |
| 1777678561 | 7.78° C | 77% | 1011.8 hPa | - | - | - | - |
| 1777677516 | 7.78° C | 77% | 1011.6 hPa | - | - | - | - |
| 1777676486 | 7.78° C | 76% | 1011.9 hPa | - | - | - | - |
| 1777675426 | 8.33° C | 76% | 1012.1 hPa | - | - | - | - |
| 1777674381 | 8.33° C | 76% | 1012 hPa | - | - | - | - |
| 1777673301 | 7.78° C | 76% | 1012 hPa | - | - | - | - |
| 1777672196 | 7.22° C | 76% | 1011.8 hPa | - | - | - | - |
| 1777671101 | 7.22° C | 76% | 1011.6 hPa | - | - | - | - |
| 1777670091 | 7.22° C | 75% | 1013 hPa | - | - | - | - |
| 1777669056 | 7.78° C | 75% | 1012.7 hPa | - | - | - | - |
| 1777667936 | 7.78° C | 74% | 1012.1 hPa | - | - | - | - |
| 1777666776 | 8.33° C | 74% | 1013.2 hPa | - | - | - | - |
| 1777665681 | 7.78° C | 73% | 1013.1 hPa | - | - | - | - |
| 1777664516 | 7.78° C | 73% | 1013.6 hPa | - | - | - | - |
| 1777663541 | 8.33° C | 72% | 1013.8 hPa | - | - | - | - |
| 1777662411 | 8.33° C | 71% | 1013.5 hPa | - | - | - | - |
| 1777661326 | 8.33° C | 70% | 1014.1 hPa | - | - | - | - |
| 1777660211 | 8.89° C | 69% | 1014 hPa | - | - | - | - |
| 1777659141 | 9.44° C | 67% | 1013.8 hPa | - | - | - | - |
| 1777658066 | 10.56° C | 65% | 1013.6 hPa | - | - | - | - |
* Rain since midnight (hover to see other rain measurements)
** Current wind speed in m/s (hover to see current wind gust speed)